This demonstration page uses our WeatherBlox Daily Observations layout. Learn more.

38.80484, -77.04692

Hourly Observations for April 20, 2019

Temp ( °F °C ) Dew Point ( °F °C ) Humidity (%) Winds ( mph kmh ) Pressure ( in mb ) Visibility ( mi km ) Precip ( " mm )
12:49 am 00:49 Cloudy 68 20 63 17 83 83 SSE 13 20 29.61 1003 10 16.0934 0 0
12:52 am 00:52 Cloudy 68 20 62 16.7 81 81 SSE 15 24 29.61 1003 10 16.0934 0 0
1:52 am 01:52 Cloudy with Light Rain 68 20 62 16.7 81 81 SSE 15 24 29.61 1003 10 16.0934 0 0.0254
2:52 am 02:52 Cloudy 67 19.4 62 16.7 84 84 S 13 20 29.6 1002 10 16.0934 0 0.0254
3:10 am 03:10 Cloudy 67 19.4 62 16.7 84 84 SSE 13 20 29.59 1002 10 16.0934 0 0
3:35 am 03:35 Cloudy 68 20 62 16.7 81 81 SSE 10 17 29.59 1002 10 16.0934 0 0
4:50 am 04:50 Cloudy 66 19 63 17 88 88 SE 13 20 29.55 1001 10 16.0934 0 0.0254
4:52 am 04:52 Cloudy 67 19.4 62 16.7 84 84 SE 12 19 29.55 1001 10 16.0934 0 0.0254
5:49 am 05:49 Cloudy 66 19 63 17 88 88 S 8 13 29.56 1001 10 16.0934 0 0.0254
5:52 am 05:52 Cloudy 67 19.4 63 17.2 87 87 S 9 15 29.56 1001 10 16.0934 0 0.0254
6:45 am 06:45 Mostly Cloudy 66 18.9 62 16.7 87 87 SSE 7 11 29.57 1001 10 16.0934 0 0
6:52 am 06:52 Mostly Cloudy 66 18.9 62 16.7 87 87 SSE 8 13 29.57 1001 10 16.0934 0 0
7:40 am 07:40 Mostly Cloudy 67 19.4 63 17.2 87 87 SSE 7 11 29.58 1002 10 16.0934 0 0
7:52 am 07:52 Cloudy 68 20 63 17.2 84 84 S 9 15 29.58 1002 10 16.0934 0 0
8:22 am 08:22 Cloudy 68 20 63 17.2 84 84 S 8 13 29.59 1002 10 16.0934 0 0
8:52 am 08:52 Cloudy 68 20 63 17.2 84 84 S 12 19 29.59 1002 10 16.0934 0 0
9:09 am 09:09 Mostly Cloudy 68 20 62 16.7 81 81 S 10 17 29.59 1002 10 16.0934 0 0
9:52 am 09:52 Mostly Cloudy 69 20.6 59 15 70 70 S 13 20 29.61 1003 10 16.0934 0 0
10:52 am 10:52 Mostly Cloudy 69 20.6 52 11.1 55 55 S 20 31 29.63 1004 10 16.0934 0 0
11:52 am 11:52 Mostly Cloudy 71 21.7 50 10 47 47 S 21 33 29.65 1004 10 16.0934 0 0
12:52 pm 12:52 Mostly Cloudy 71 21.7 49 9.4 46 46 S 20 31 29.65 1004 10 16.0934 0 0
1:52 pm 13:52 Partly Cloudy 71 21.7 50 10 47 47 S 15 24 29.65 1004 10 16.0934 0 0
2:52 pm 14:52 Mostly Cloudy 73 22.8 48 8.9 41 41 S 18 30 29.64 1004 10 16.0934 0 0
3:52 pm 15:52 Sunny 73 22.8 45 7.2 37 37 SSW 22 35 29.64 1004 10 16.0934 0 0
4:52 pm 16:52 Mostly Cloudy 72 22.2 48 8.9 43 43 S 17 28 29.66 1004 10 16.0934 0 0
5:52 pm 17:52 Mostly Cloudy 71 21.7 46 7.8 41 41 S 17 28 29.68 1005 10 16.0934 0 0
6:52 pm 18:52 Mostly Cloudy 69 20.6 45 7.2 42 42 S 17 28 29.7 1006 10 16.0934 0 0
7:52 pm 19:52 Mostly Cloudy 68 20 41 5 38 38 SSW 21 33 29.75 1007 10 16.0934 0 0
8:52 pm 20:52 Mostly Cloudy 66 18.9 42 5.6 42 42 SW 12 19 29.77 1008 10 16.0934 0 0
9:52 pm 21:52 Mostly Cloudy 64 17.8 39 3.9 40 40 SSW 12 19 29.79 1009 10 16.0934 0 0
10:52 pm 22:52 Mostly Cloudy 62 16.7 40 4.4 44 44 SW 10 17 29.8 1009 10 16.0934 0 0
11:52 pm 23:52 Mostly Cloudy 62 16.7 39 3.9 43 43 WSW 13 20 29.83 1010 10 16.0934 0 0

Powered by AerisWeather